Location: Black Swamp Observatory
(41.3920°N, 84.1250°W)
Time: 01:54:22
(UTC-04:00)

Courier 1B Rocket - Visible Passes

Search period start: 10 August 2022 00:00
Search period end: 20 August 2022 00:00
Orbit: 920 x 1202 km, 28.2° (Epoch: 09 August)

Date Brightness Start Highest point End Pass type
(mag) Time Alt. Az. Time Alt. Az. Time Alt. Az.
10 Aug 6.7 22:27:40 10° WSW 22:32:06 18° SSW 22:33:58 17° S visible
11 Aug 6.6 21:26:29 10° WSW 21:31:16 21° SSW 21:36:15 10° SE visible
12 Aug 7.0 22:19:47 10° SW 22:22:57 14° SSW 22:25:19 12° S visible
13 Aug 6.8 21:18:10 10° SW 21:22:10 17° SSW 21:26:18 10° SSE visible
15 Aug 7.1 21:10:30 10° SW 21:13:03 12° SSW 21:15:40 10° S visible
